| time (UTC) | temp F | wind direction | speed MPH | gust MPH | rain 1hr in | rain 24hr in | rain mn in | humidity % | barometer mb |
| 20260904045147 | 81 | 215 | 0.0 | 2.0 | 0.00 | 0.00 | 0.00 | 89 | 1012.9 |
| 20260904044646 | 82 | 229 | 1.0 | 2.0 | 0.00 | 0.00 | 0.00 | 88 | 1012.5 |
| 20260904044146 | 82 | 293 | 0.0 | 0.0 | 0.00 | 0.00 | 0.00 | 88 | 1012.9 |
| 20260904043646 | 82 | 263 | 2.0 | 2.0 | 0.00 | 0.00 | 0.00 | 89 | 1012.9 |
| 20260904043147 | 82 | 222 | 2.0 | 3.0 | 0.00 | 0.00 | 0.00 | 88 | 1012.9 |
| 20260904042646 | 82 | 224 | 0.0 | 1.0 | 0.00 | 0.00 | 0.00 | 88 | 1012.5 |
| 20260904042147 | 82 | 230 | 0.0 | 0.0 | 0.00 | 0.00 | 0.00 | 87 | 1012.9 |
| 20260904041646 | 82 | 224 | 0.0 | 1.0 | 0.00 | 0.00 | 0.00 | 87 | 1012.9 |
| 20260904041148 | 82 | 210 | 0.0 | 1.0 | 0.00 | 0.00 | 0.00 | 87 | 1012.9 |
| 20260904040646 | 82 | 141 | 1.0 | 1.0 | 0.00 | 0.00 | 0.00 | 87 | 1012.9 |
| 20260904040149 | 82 | 315 | 0.0 | 1.0 | 0.00 | 0.00 | 0.00 | 87 | 1012.9 |
| 20260904035646 | 82 | 294 | 0.0 | 2.0 | 0.00 | 0.00 | 0.00 | 87 | 1012.9 |
| 20260904035147 | 82 | 255 | 0.0 | 1.0 | 0.00 | 0.00 | 0.00 | 86 | 1012.9 |
| 20260904034646 | 82 | 173 | 0.0 | 1.0 | 0.00 | 0.00 | 0.00 | 86 | 1013.2 |
| 20260904034146 | 82 | 160 | 2.0 | 2.0 | 0.00 | 0.00 | 0.00 | 86 | 1012.9 |
| 20260904033646 | 82 | 142 | 0.0 | 0.0 | 0.00 | 0.00 | 0.00 | 86 | 1013.2 |
| 20260904033146 | 82 | 224 | 0.0 | 1.0 | 0.00 | 0.00 | 0.00 | 86 | 1013.2 |
| 20260904032646 | 83 | 210 | 0.0 | 1.0 | 0.00 | 0.00 | 0.00 | 86 | 1013.2 |
| 20260904032149 | 82 | 197 | 1.0 | 2.0 | 0.00 | 0.00 | 0.00 | 86 | 1013.2 |
| 20260904031647 | 83 | 195 | 1.0 | 2.0 | 0.00 | 0.00 | 0.00 | 86 | 1013.2 |
| 20260904031146 | 83 | 215 | 0.0 | 1.0 | 0.00 | 0.00 | 0.00 | 86 | 1013.2 |
| 20260904030646 | 83 | 186 | 1.0 | 2.0 | 0.00 | 0.00 | 0.00 | 86 | 1013.5 |
| 20260904030147 | 83 | 173 | 2.0 | 3.0 | 0.00 | 0.00 | 0.00 | 85 | 1013.5 |
| 20260904025647 | 83 | 138 | 2.0 | 3.0 | 0.00 | 0.00 | 0.00 | 85 | 1013.5 |
| 20260904025146 | 83 | 117 | 0.0 | 4.0 | 0.00 | 0.00 | 0.00 | 85 | 1013.5 |
| 20260904024647 | 83 | 176 | 2.0 | 3.0 | 0.00 | 0.00 | 0.00 | 85 | 1013.5 |
| 20260904024147 | 83 | 180 | 1.0 | 2.0 | 0.00 | 0.00 | 0.00 | 85 | 1013.5 |
| 20260904023647 | 83 | 204 | 2.0 | 4.0 | 0.00 | 0.00 | 0.00 | 85 | 1013.5 |
| 20260904023147 | 84 | 164 | 2.0 | 2.0 | 0.00 | 0.00 | 0.00 | 84 | 1013.5 |
| 20260904022646 | 84 | 139 | 2.0 | 3.0 | 0.00 | 0.00 | 0.00 | 84 | 1013.5 |
| 20260904022147 | 84 | 155 | 2.0 | 3.0 | 0.00 | 0.00 | 0.00 | 84 | 1013.5 |
| 20260904021646 | 83 | 118 | 2.0 | 3.0 | 0.00 | 0.00 | 0.00 | 84 | 1013.5 |
| 20260904021146 | 84 | 160 | 3.0 | 3.0 | 0.00 | 0.00 | 0.00 | 84 | 1013.5 |
| 20260904020647 | 84 | 161 | 2.0 | 3.0 | 0.00 | 0.00 | 0.00 | 84 | 1013.5 |
| 20260904020146 | 84 | 140 | 1.0 | 3.0 | 0.00 | 0.00 | 0.00 | 84 | 1013.5 |
| 20260904015647 | 84 | 156 | 2.0 | 3.0 | 0.00 | 0.00 | 0.00 | 83 | 1013.5 |
| 20260904015146 | 84 | 163 | 2.0 | 3.0 | 0.00 | 0.00 | 0.00 | 83 | 1013.5 |
| 20260904014647 | 84 | 161 | 3.0 | 3.0 | 0.00 | 0.00 | 0.00 | 83 | 1013.2 |
| 20260904014147 | 84 | 176 | 2.0 | 3.0 | 0.00 | 0.00 | 0.00 | 83 | 1013.2 |
| 20260904013646 | 84 | 163 | 2.0 | 3.0 | 0.00 | 0.00 | 0.00 | 83 | 1013.2 |
| 20260904013148 | 84 | 158 | 3.0 | 3.0 | 0.00 | 0.00 | 0.00 | 82 | 1013.2 |
| 20260904012646 | 84 | 154 | 2.0 | 4.0 | 0.00 | 0.00 | 0.00 | 82 | 1013.2 |
| 20260904012146 | 84 | 145 | 3.0 | 4.0 | 0.00 | 0.00 | 0.00 | 83 | 1012.9 |
| 20260904011646 | 84 | 161 | 3.0 | 4.0 | 0.00 | 0.00 | 0.00 | 83 | 1013.2 |
| 20260904011146 | 84 | 164 | 3.0 | 3.0 | 0.00 | 0.00 | 0.00 | 83 | 1013.2 |
| 20260904010647 | 84 | 183 | 4.0 | 4.0 | 0.00 | 0.00 | 0.00 | 82 | 1013.2 |
| 20260904010147 | 84 | 167 | 3.0 | 4.0 | 0.00 | 0.00 | 0.00 | 82 | 1013.2 |
| 20260904005646 | 84 | 155 | 4.0 | 5.0 | 0.00 | 0.00 | 0.00 | 81 | 1013.2 |
| 20260904005146 | 84 | 173 | 2.0 | 5.0 | 0.00 | 0.00 | 0.00 | 81 | 1013.2 |
| 20260904004646 | 84 | 172 | 5.0 | 5.0 | 0.00 | 0.00 | 0.00 | 82 | 1013.2 |
| 20260904004147 | 85 | 168 | 5.0 | 6.0 | 0.00 | 0.00 | 0.00 | 81 | 1013.2 |
| 20260904003646 | 85 | 182 | 5.0 | 7.0 | 0.00 | 0.00 | 0.00 | 81 | 1013.5 |
| 20260904003146 | 85 | 186 | 5.0 | 6.0 | 0.00 | 0.00 | 0.00 | 81 | 1013.2 |
| 20260904002646 | 85 | 168 | 4.0 | 6.0 | 0.00 | 0.00 | 0.00 | 80 | 1013.2 |
| 20260904002146 | 85 | 191 | 3.0 | 5.0 | 0.00 | 0.00 | 0.00 | 80 | 1013.2 |
| 20260904001646 | 85 | 162 | 3.0 | 5.0 | 0.00 | 0.00 | 0.00 | 80 | 1013.2 |
| 20260904001146 | 85 | 167 | 3.0 | 6.0 | 0.00 | 0.00 | 0.00 | 79 | 1013.2 |
| 20260904000647 | 86 | 166 | 4.0 | 5.0 | 0.00 | 0.00 | 0.00 | 79 | 1012.9 |
| 20260904000146 | 86 | 155 | 2.0 | 5.0 | 0.00 | 0.00 | 0.00 | 78 | 1013.2 |
| 20260903235646 | 86 | 180 | 4.0 | 6.0 | 0.00 | 0.00 | 0.00 | 78 | 1013.2 |
| 20260903235146 | 86 | 162 | 5.0 | 8.0 | 0.00 | 0.00 | 0.00 | 78 | 1013.2 |
| 20260903234646 | 86 | 162 | 4.0 | 5.0 | 0.00 | 0.00 | 0.00 | 78 | 1013.2 |
| 20260903234146 | 86 | 176 | 4.0 | 7.0 | 0.00 | 0.00 | 0.00 | 77 | 1013.2 |
| 20260903233646 | 86 | 169 | 5.0 | 7.0 | 0.00 | 0.00 | 0.00 | 77 | 1013.2 |
| 20260903233147 | 87 | 184 | 5.0 | 6.0 | 0.00 | 0.00 | 0.00 | 77 | 1013.2 |
| 20260903232646 | 87 | 176 | 5.0 | 8.0 | 0.00 | 0.00 | 0.00 | 76 | 1012.9 |
| 20260903232146 | 87 | 152 | 3.0 | 6.0 | 0.00 | 0.00 | 0.00 | 76 | 1012.9 |
| 20260903231646 | 87 | 169 | 7.0 | 9.0 | 0.00 | 0.00 | 0.00 | 75 | 1012.9 |
| 20260903231146 | 87 | 181 | 6.0 | 6.0 | 0.00 | 0.00 | 0.00 | 76 | 1012.9 |
| 20260903230648 | 87 | 184 | 5.0 | 8.0 | 0.00 | 0.00 | 0.00 | 76 | 1012.9 |
| 20260903230150 | 87 | 190 | 6.0 | 11.0 | 0.00 | 0.00 | 0.00 | 76 | 1012.5 |
| 20260903225647 | 87 | 161 | 8.0 | 11.0 | 0.00 | 0.00 | 0.00 | 77 | 1012.9 |
| 20260903225146 | 87 | 174 | 6.0 | 11.0 | 0.00 | 0.00 | 0.00 | 76 | 1012.5 |
| 20260903224646 | 87 | 167 | 9.0 | 12.0 | 0.00 | 0.00 | 0.00 | 75 | 1012.9 |
| 20260903224149 | 87 | 167 | 9.0 | 14.0 | 0.00 | 0.00 | 0.00 | 75 | 1012.9 |
| 20260903223647 | 88 | 175 | 6.0 | 9.0 | 0.00 | 0.00 | 0.00 | 73 | 1012.9 |
| 20260903223146 | 88 | 164 | 5.0 | 7.0 | 0.00 | 0.00 | 0.00 | 72 | 1012.9 |
| 20260903222646 | 88 | 166 | 4.0 | 6.0 | 0.00 | 0.00 | 0.00 | 73 | 1012.5 |
| 20260903222146 | 88 | 165 | 8.0 | 9.0 | 0.00 | 0.00 | 0.00 | 71 | 1012.9 |
| 20260903221646 | 88 | 171 | 4.0 | 9.0 | 0.00 | 0.00 | 0.00 | 70 | 1012.5 |
| 20260903221147 | 88 | 158 | 5.0 | 10.0 | 0.00 | 0.00 | 0.00 | 69 | 1012.9 |
| 20260903220647 | 89 | 167 | 8.0 | 8.0 | 0.00 | 0.00 | 0.00 | 69 | 1012.9 |
| 20260903220147 | 89 | 160 | 5.0 | 9.0 | 0.00 | 0.00 | 0.00 | 69 | 1012.9 |
| 20260903215647 | 89 | 176 | 3.0 | 6.0 | 0.00 | 0.00 | 0.00 | 69 | 1012.9 |
| 20260903215146 | 89 | 173 | 6.0 | 7.0 | 0.00 | 0.00 | 0.00 | 69 | 1012.9 |
| 20260903214647 | 89 | 163 | 6.0 | 10.0 | 0.00 | 0.00 | 0.00 | 68 | 1012.9 |
| 20260903214146 | 89 | 178 | 5.0 | 7.0 | 0.00 | 0.00 | 0.00 | 69 | 1012.9 |
| 20260903213648 | 88 | 173 | 3.0 | 6.0 | 0.00 | 0.00 | 0.00 | 72 | 1012.9 |
| 20260903213147 | 88 | 161 | 7.0 | 7.0 | 0.00 | 0.00 | 0.00 | 73 | 1013.2 |
| 20260903212647 | 88 | 171 | 4.0 | 6.0 | 0.00 | 0.00 | 0.00 | 74 | 1013.2 |
| 20260903212150 | 88 | 173 | 10.0 | 10.0 | 0.00 | 0.00 | 0.00 | 74 | 1012.9 |
| 20260903211646 | 88 | 180 | 5.0 | 8.0 | 0.00 | 0.00 | 0.00 | 74 | 1012.9 |
| 20260903211147 | 87 | 180 | 3.0 | 5.0 | 0.00 | 0.00 | 0.00 | 77 | 1012.9 |
| 20260903210646 | 87 | 179 | 5.0 | 8.0 | 0.00 | 0.00 | 0.00 | 77 | 1012.9 |
| 20260903210149 | 87 | 204 | 4.0 | 8.0 | 0.00 | 0.00 | 0.00 | 77 | 1012.9 |
| 20260903205646 | 86 | 231 | 4.0 | 9.0 | 0.00 | 0.00 | 0.00 | 78 | 1013.2 |
| 20260903205147 | 86 | 173 | 5.0 | 9.0 | 0.00 | 0.00 | 0.00 | 78 | 1012.9 |
| 20260903204646 | 87 | 264 | 4.0 | 10.0 | 0.00 | 0.00 | 0.00 | 77 | 1012.9 |
| 20260903204148 | 87 | 227 | 7.0 | 7.0 | 0.00 | 0.00 | 0.00 | 78 | 1013.2 |
| 20260903203647 | 87 | 228 | 6.0 | 9.0 | 0.00 | 0.00 | 0.00 | 77 | 1012.9 |
| 20260903203146 | 87 | 238 | 3.0 | 9.0 | 0.00 | 0.00 | 0.00 | 76 | 1012.9 |
| 20260903202646 | 87 | 212 | 8.0 | 12.0 | 0.00 | 0.00 | 0.00 | 76 | 1013.2 |
| 20260903202146 | 88 | 196 | 9.0 | 13.0 | 0.00 | 0.00 | 0.00 | 75 | 1013.2 |
| 20260903201647 | 89 | 238 | 8.0 | 9.0 | 0.00 | 0.00 | 0.00 | 74 | 1013.2 |
| 20260903201148 | 89 | 218 | 5.0 | 8.0 | 0.00 | 0.00 | 0.00 | 74 | 1013.2 |
| 20260903200647 | 89 | 197 | 7.0 | 9.0 | 0.00 | 0.00 | 0.00 | 72 | 1013.5 |
| 20260903200147 | 89 | 190 | 7.0 | 8.0 | 0.00 | 0.00 | 0.00 | 71 | 1013.5 |
| 20260903195646 | 89 | 251 | 6.0 | 7.0 | 0.00 | 0.00 | 0.00 | 72 | 1013.2 |
| 20260903195146 | 89 | 187 | 4.0 | 7.0 | 0.00 | 0.00 | 0.00 | 72 | 1013.5 |
| 20260903194647 | 88 | 205 | 4.0 | 6.0 | 0.00 | 0.00 | 0.00 | 72 | 1013.5 |
| 20260903194147 | 87 | 255 | 5.0 | 9.0 | 0.00 | 0.00 | 0.00 | 72 | 1013.5 |
| 20260903193646 | 87 | 269 | 4.0 | 9.0 | 0.00 | 0.00 | 0.00 | 73 | 1013.5 |
| 20260903193146 | 86 | 232 | 5.0 | 11.0 | 0.00 | 0.00 | 0.00 | 75 | 1013.5 |
| 20260903192646 | 86 | 235 | 6.0 | 11.0 | 0.00 | 0.00 | 0.00 | 76 | 1013.5 |
| 20260903192146 | 86 | 224 | 7.0 | 9.0 | 0.00 | 0.00 | 0.00 | 76 | 1013.5 |
| 20260903191647 | 86 | 214 | 5.0 | 10.0 | 0.00 | 0.00 | 0.00 | 77 | 1013.5 |
| 20260903191147 | 87 | 247 | 5.0 | 10.0 | 0.00 | 0.00 | 0.00 | 76 | 1014.2 |
| 20260903190646 | 88 | 226 | 5.0 | 7.0 | 0.00 | 0.00 | 0.00 | 74 | 1013.9 |
| 20260903190147 | 87 | 209 | 4.0 | 6.0 | 0.00 | 0.00 | 0.00 | 76 | 1014.2 |
| 20260903185647 | 87 | 227 | 6.0 | 7.0 | 0.00 | 0.00 | 0.00 | 74 | 1014.2 |
| 20260903185147 | 87 | 194 | 4.0 | 7.0 | 0.00 | 0.00 | 0.00 | 73 | 1014.2 |
| 20260903184648 | 86 | 243 | 6.0 | 7.0 | 0.00 | 0.00 | 0.00 | 74 | 1014.2 |
| 20260903184147 | 86 | 184 | 3.0 | 6.0 | 0.00 | 0.00 | 0.00 | 75 | 1014.2 |
| 20260903183646 | 86 | 224 | 0.0 | 4.0 | 0.00 | 0.00 | 0.00 | 74 | 1013.9 |
| 20260903183146 | 88 | 165 | 7.0 | 8.0 | 0.00 | 0.00 | 0.00 | 71 | 1014.2 |
| 20260903182647 | 90 | 75 | 1.0 | 6.0 | 0.00 | 0.00 | 0.00 | 67 | 1014.2 |
| 20260903182147 | 90 | 42 | 2.0 | 4.0 | 0.00 | 0.00 | 0.00 | 67 | 1014.6 |
| 20260903181646 | 89 | 156 | 4.0 | 4.0 | 0.00 | 0.00 | 0.00 | 67 | 1014.6 |
| 20260903181147 | 89 | 75 | 3.0 | 4.0 | 0.00 | 0.00 | 0.00 | 68 | 1014.2 |
| 20260903180647 | 89 | 34 | 2.0 | 3.0 | 0.00 | 0.00 | 0.00 | 71 | 1014.2 |
| 20260903180146 | 89 | 302 | 3.0 | 5.0 | 0.00 | 0.00 | 0.00 | 70 | 1014.2 |
| 20260903175646 | 90 | 63 | 4.0 | 8.0 | 0.00 | 0.00 | 0.00 | 69 | 1014.6 |
| 20260903175148 | 89 | 52 | 6.0 | 7.0 | 0.00 | 0.00 | 0.00 | 70 | 1014.6 |
| 20260903174646 | 89 | 41 | 4.0 | 8.0 | 0.00 | 0.00 | 0.00 | 71 | 1014.6 |
| 20260903174147 | 89 | 4 | 4.0 | 5.0 | 0.00 | 0.00 | 0.00 | 71 | 1014.6 |
| 20260903173646 | 89 | 17 | 2.0 | 5.0 | 0.00 | 0.00 | 0.00 | 71 | 1014.6 |
| 20260903173146 | 88 | 39 | 2.0 | 11.0 | 0.00 | 0.00 | 0.00 | 72 | 1014.6 |
| 20260903172647 | 89 | 25 | 5.0 | 8.0 | 0.00 | 0.00 | 0.00 | 72 | 1014.9 |
| 20260903172147 | 89 | 42 | 6.0 | 6.0 | 0.00 | 0.00 | 0.00 | 71 | 1014.9 |
| 20260903171649 | 89 | 355 | 5.0 | 7.0 | 0.00 | 0.00 | 0.00 | 71 | 1015.2 |
| 20260903171147 | 89 | 21 | 0.0 | 6.0 | 0.00 | 0.00 | 0.00 | 72 | 1015.2 |
| 20260903170647 | 89 | 360 | 3.0 | 9.0 | 0.00 | 0.00 | 0.00 | 72 | 1015.2 |
| 20260903170146 | 89 | 60 | 1.0 | 7.0 | 0.00 | 0.00 | 0.00 | 72 | 1015.2 |
| 20260903165646 | 89 | 30 | 6.0 | 7.0 | 0.00 | 0.00 | 0.00 | 72 | 1015.2 |
| 20260903165146 | 88 | 4 | 4.0 | 5.0 | 0.00 | 0.00 | 0.00 | 72 | 1015.2 |
| 20260903164646 | 88 | 352 | 7.0 | 8.0 | 0.00 | 0.00 | 0.00 | 73 | 1015.2 |
| 20260903164147 | 88 | 338 | 3.0 | 7.0 | 0.00 | 0.00 | 0.00 | 74 | 1015.2 |
| 20260903163646 | 89 | 357 | 5.0 | 9.0 | 0.00 | 0.00 | 0.00 | 73 | 1015.6 |
| 20260903163147 | 88 | 338 | 4.0 | 7.0 | 0.00 | 0.00 | 0.00 | 73 | 1015.2 |
| 20260903162647 | 88 | 24 | 4.0 | 8.0 | 0.00 | 0.00 | 0.00 | 73 | 1015.2 |
| 20260903162148 | 88 | 47 | 3.0 | 8.0 | 0.00 | 0.00 | 0.00 | 73 | 1015.2 |
| 20260903161648 | 88 | 26 | 3.0 | 9.0 | 0.00 | 0.00 | 0.00 | 74 | 1015.6 |
| 20260903161147 | 88 | 325 | 1.0 | 7.0 | 0.00 | 0.00 | 0.00 | 75 | 1015.2 |
| 20260903160647 | 88 | 360 | 6.0 | 11.0 | 0.00 | 0.00 | 0.00 | 74 | 1015.2 |
| 20260903160149 | 88 | 1 | 2.0 | 8.0 | 0.00 | 0.00 | 0.00 | 74 | 1015.2 |
| 20260903155647 | 87 | 328 | 6.0 | 8.0 | 0.00 | 0.00 | 0.00 | 76 | 1015.6 |
| 20260903155147 | 87 | 360 | 4.0 | 6.0 | 0.00 | 0.00 | 0.00 | 77 | 1015.2 |
| 20260903154647 | 86 | 1 | 4.0 | 6.0 | 0.00 | 0.00 | 0.00 | 78 | 1015.2 |
| 20260903154147 | 87 | 62 | 3.0 | 9.0 | 0.00 | 0.00 | 0.00 | 78 | 1015.2 |
| 20260903153647 | 87 | 47 | 4.0 | 8.0 | 0.00 | 0.00 | 0.00 | 77 | 1015.2 |
| 20260903153147 | 86 | 354 | 2.0 | 6.0 | 0.00 | 0.00 | 0.00 | 78 | 1015.2 |
| 20260903152647 | 87 | 25 | 3.0 | 7.0 | 0.00 | 0.00 | 0.00 | 78 | 1015.2 |
| 20260903152146 | 87 | 18 | 8.0 | 8.0 | 0.00 | 0.00 | 0.00 | 77 | 1015.2 |
| 20260903151647 | 87 | 353 | 3.0 | 7.0 | 0.00 | 0.00 | 0.00 | 76 | 1014.9 |
| 20260903151146 | 88 | 346 | 3.0 | 7.0 | 0.00 | 0.00 | 0.00 | 76 | 1014.9 |
| 20260903150648 | 88 | 51 | 4.0 | 6.0 | 0.00 | 0.00 | 0.00 | 69 | 1015.2 |
| 20260903150146 | 89 | 70 | 6.0 | 8.0 | 0.00 | 0.00 | 0.00 | 66 | 1015.2 |
| 20260903145646 | 89 | 29 | 1.0 | 4.0 | 0.00 | 0.00 | 0.00 | 67 | 1015.2 |
| 20260903145148 | 88 | 227 | 2.0 | 4.0 | 0.00 | 0.00 | 0.00 | 70 | 1014.9 |
| 20260903144648 | 89 | 344 | 4.0 | 6.0 | 0.00 | 0.00 | 0.00 | 68 | 1014.9 |
| 20260903144148 | 88 | 302 | 2.0 | 3.0 | 0.00 | 0.00 | 0.00 | 73 | 1014.9 |
| 20260903143650 | 87 | 318 | 2.0 | 5.0 | 0.00 | 0.00 | 0.00 | 74 | 1015.2 |
| 20260903143147 | 87 | 317 | 3.0 | 4.0 | 0.00 | 0.00 | 0.00 | 72 | 1015.2 |
| 20260903142647 | 87 | 51 | 8.0 | 9.0 | 0.00 | 0.00 | 0.00 | 71 | 1015.2 |
| 20260903142147 | 87 | 357 | 2.0 | 8.0 | 0.00 | 0.00 | 0.00 | 74 | 1015.2 |
| 20260903141646 | 87 | 47 | 5.0 | 5.0 | 0.00 | 0.00 | 0.00 | 74 | 1015.2 |
| 20260903141147 | 87 | 75 | 3.0 | 5.0 | 0.00 | 0.00 | 0.00 | 74 | 1015.2 |
| 20260903140647 | 87 | 2 | 4.0 | 5.0 | 0.00 | 0.00 | 0.00 | 74 | 1015.2 |
| 20260903140147 | 87 | 357 | 2.0 | 5.0 | 0.00 | 0.00 | 0.00 | 75 | 1015.2 |
| 20260903135647 | 87 | 347 | 3.0 | 4.0 | 0.00 | 0.00 | 0.00 | 74 | 1015.2 |
| 20260903135147 | 86 | 324 | 0.0 | 4.0 | 0.00 | 0.00 | 0.00 | 75 | 1015.2 |
| 20260903134646 | 86 | 329 | 4.0 | 5.0 | 0.00 | 0.00 | 0.00 | 74 | 1015.2 |
| 20260903134147 | 87 | 53 | 2.0 | 4.0 | 0.00 | 0.00 | 0.00 | 75 | 1015.2 |
| 20260903133649 | 87 | 81 | 3.0 | 4.0 | 0.00 | 0.00 | 0.00 | 75 | 1015.2 |
| 20260903133147 | 86 | 51 | 3.0 | 5.0 | 0.00 | 0.00 | 0.00 | 76 | 1015.2 |
| 20260903132647 | 86 | 330 | 1.0 | 3.0 | 0.00 | 0.00 | 0.00 | 78 | 1015.2 |
| 20260903132147 | 86 | 331 | 2.0 | 3.0 | 0.00 | 0.00 | 0.00 | 79 | 1015.2 |
| 20260903131647 | 86 | 62 | 2.0 | 4.0 | 0.00 | 0.00 | 0.00 | 77 | 1015.2 |
| 20260903131147 | 86 | 310 | 0.0 | 1.0 | 0.00 | 0.00 | 0.00 | 78 | 1015.2 |
| 20260903130646 | 87 | 92 | 1.0 | 3.0 | 0.00 | 0.00 | 0.00 | 77 | 1015.2 |
| 20260903130147 | 86 | 262 | 0.0 | 2.0 | 0.00 | 0.00 | 0.00 | 79 | 1015.2 |
| 20260903125647 | 85 | 350 | 1.0 | 3.0 | 0.00 | 0.00 | 0.00 | 82 | 1015.2 |
| 20260903125146 | 84 | 325 | 1.0 | 3.0 | 0.00 | 0.00 | 0.00 | 85 | 1015.2 |
| 20260903124647 | 83 | 46 | 1.0 | 3.0 | 0.00 | 0.00 | 0.00 | 86 | 1014.9 |
| 20260903124146 | 83 | 300 | 1.0 | 2.0 | 0.00 | 0.00 | 0.00 | 87 | 1015.2 |
| 20260903123647 | 83 | 181 | 2.0 | 3.0 | 0.00 | 0.00 | 0.00 | 88 | 1015.2 |
| 20260903123149 | 82 | 105 | 0.0 | 3.0 | 0.00 | 0.00 | 0.00 | 90 | 1015.2 |
| 20260903122647 | 81 | 269 | 0.0 | 3.0 | 0.00 | 0.00 | 0.00 | 93 | 1015.2 |
| 20260903122147 | 80 | 323 | 1.0 | 3.0 | 0.00 | 0.00 | 0.00 | 95 | 1014.9 |
| 20260903121650 | 80 | 182 | 2.0 | 3.0 | 0.00 | 0.00 | 0.00 | 95 | 1015.2 |
| 20260903121146 | 79 | 187 | 2.0 | 3.0 | 0.00 | 0.00 | 0.00 | 96 | 1014.9 |
| 20260903120647 | 79 | 169 | 0.0 | 3.0 | 0.00 | 0.00 | 0.00 | 96 | 1014.9 |
| 20260903120147 | 79 | 269 | 0.0 | 3.0 | 0.00 | 0.00 | 0.00 | 97 | 1015.2 |
| 20260903115646 | 78 | 272 | 1.0 | 3.0 | 0.00 | 0.00 | 0.00 | 97 | 1014.9 |
| 20260903115146 | 78 | 132 | 2.0 | 3.0 | 0.00 | 0.00 | 0.00 | 97 | 1014.9 |
| 20260903114646 | 78 | 323 | 2.0 | 4.0 | 0.00 | 0.00 | 0.00 | 97 | 1014.9 |
| 20260903114149 | 78 | 84 | 2.0 | 3.0 | 0.00 | 0.00 | 0.00 | 97 | 1014.9 |
| 20260903113650 | 78 | 276 | 2.0 | 3.0 | 0.00 | 0.00 | 0.00 | 97 | 1014.9 |
| 20260903113147 | 78 | 30 | 1.0 | 3.0 | 0.00 | 0.00 | 0.00 | 97 | 1014.6 |
| 20260903112648 | 78 | 196 | 1.0 | 3.0 | 0.00 | 0.00 | 0.00 | 97 | 1014.6 |
| 20260903112147 | 78 | 271 | 1.0 | 2.0 | 0.00 | 0.00 | 0.00 | 96 | 1014.6 |
| 20260903111646 | 79 | 173 | 0.0 | 3.0 | 0.00 | 0.00 | 0.00 | 96 | 1014.2 |
| 20260903111149 | 79 | 227 | 0.0 | 2.0 | 0.00 | 0.00 | 0.00 | 96 | 1014.2 |
| 20260903110647 | 79 | 304 | 0.0 | 2.0 | 0.00 | 0.00 | 0.00 | 96 | 1014.2 |
| 20260903110146 | 79 | 315 | 0.0 | 1.0 | 0.00 | 0.00 | 0.00 | 96 | 1014.2 |
| 20260903105647 | 79 | 224 | 0.0 | 0.0 | 0.00 | 0.00 | 0.00 | 96 | 1014.2 |
| 20260903105146 | 79 | 245 | 1.0 | 1.0 | 0.00 | 0.00 | 0.00 | 96 | 1014.2 |
| 20260903104648 | 79 | 241 | 0.0 | 1.0 | 0.00 | 0.00 | 0.00 | 96 | 1014.2 |
| 20260903104146 | 79 | 242 | 1.0 | 1.0 | 0.00 | 0.00 | 0.00 | 95 | 1014.2 |
| 20260903103648 | 79 | 165 | 0.0 | 1.0 | 0.00 | 0.00 | 0.00 | 95 | 1014.2 |
| 20260903103148 | 79 | 224 | 1.0 | 1.0 | 0.00 | 0.00 | 0.00 | 95 | 1014.2 |
| 20260903102647 | 80 | 225 | 0.0 | 1.0 | 0.00 | 0.00 | 0.00 | 94 | 1014.2 |
| 20260903102146 | 80 | 230 | 1.0 | 2.0 | 0.00 | 0.00 | 0.00 | 93 | 1014.2 |
| 20260903101647 | 80 | 322 | 0.0 | 2.0 | 0.00 | 0.00 | 0.00 | 93 | 1014.2 |
| 20260903101147 | 80 | 31 | 0.0 | 2.0 | 0.00 | 0.00 | 0.00 | 93 | 1014.2 |
| 20260903100647 | 80 | 66 | 0.0 | 2.0 | 0.00 | 0.00 | 0.00 | 93 | 1014.2 |
| 20260903100146 | 80 | 58 | 2.0 | 3.0 | 0.00 | 0.00 | 0.00 | 94 | 1013.9 |
| 20260903095646 | 80 | 55 | 0.0 | 3.0 | 0.00 | 0.00 | 0.00 | 95 | 1014.2 |
| 20260903095146 | 80 | 76 | 0.0 | 1.0 | 0.00 | 0.00 | 0.00 | 95 | 1013.9 |
| 20260903094646 | 79 | 65 | 0.0 | 2.0 | 0.00 | 0.00 | 0.00 | 96 | 1013.9 |
| 20260903094146 | 79 | 123 | 0.0 | 1.0 | 0.00 | 0.00 | 0.00 | 97 | 1013.9 |
| 20260903093649 | 79 | 135 | 0.0 | 0.0 | 0.00 | 0.00 | 0.00 | 96 | 1013.9 |
| 20260903093147 | 79 | 217 | 0.0 | 1.0 | 0.00 | 0.00 | 0.00 | 97 | 1013.9 |
| 20260903092646 | 79 | 176 | 1.0 | 2.0 | 0.00 | 0.00 | 0.00 | 97 | 1013.9 |
| 20260903092146 | 79 | 137 | 0.0 | 2.0 | 0.00 | 0.00 | 0.00 | 97 | 1013.9 |
| 20260903091646 | 79 | 104 | 0.0 | 2.0 | 0.00 | 0.00 | 0.00 | 98 | 1013.9 |
| 20260903091155 | 79 | 224 | 0.0 | 1.0 | 0.00 | 0.00 | 0.00 | 97 | 1013.9 |
| 20260903090649 | 79 | 217 | 1.0 | 2.0 | 0.00 | 0.00 | 0.00 | 98 | 1014.2 |
| 20260903090147 | 79 | 202 | 0.0 | 1.0 | 0.00 | 0.00 | 0.00 | 97 | 1013.9 |
| 20260903085647 | 79 | 224 | 0.0 | 1.0 | 0.00 | 0.00 | 0.00 | 97 | 1013.9 |
| 20260903085147 | 79 | 246 | 0.0 | 1.0 | 0.00 | 0.00 | 0.00 | 97 | 1013.9 |
| 20260903084646 | 79 | 227 | 0.0 | 0.0 | 0.00 | 0.00 | 0.00 | 97 | 1014.2 |
| 20260903084146 | 79 | 230 | 0.0 | 1.0 | 0.00 | 0.00 | 0.00 | 97 | 1013.9 |
| 20260903083647 | 79 | 242 | 0.0 | 1.0 | 0.00 | 0.00 | 0.00 | 97 | 1013.9 |
| 20260903083146 | 79 | 129 | 0.0 | 0.0 | 0.00 | 0.00 | 0.00 | 97 | 1013.9 |
| 20260903082647 | 79 | 169 | 0.0 | 0.0 | 0.00 | 0.00 | 0.00 | 97 | 1013.9 |
| 20260903082146 | 79 | 44 | 0.0 | 0.0 | 0.00 | 0.00 | 0.00 | 97 | 1013.9 |
| 20260903081647 | 79 | 129 | 0.0 | 0.0 | 0.00 | 0.00 | 0.00 | 96 | 1014.2 |
| 20260903081147 | 79 | 231 | 0.0 | 1.0 | 0.00 | 0.00 | 0.00 | 96 | 1013.9 |
| 20260903080647 | 79 | 242 | 0.0 | 1.0 | 0.00 | 0.00 | 0.00 | 96 | 1013.9 |
| 20260903080147 | 79 | 216 | 1.0 | 2.0 | 0.00 | 0.00 | 0.00 | 96 | 1014.2 |
| 20260903075646 | 79 | 183 | 1.0 | 2.0 | 0.00 | 0.00 | 0.00 | 96 | 1013.9 |
| 20260903075147 | 80 | 246 | 0.0 | 1.0 | 0.00 | 0.00 | 0.00 | 96 | 1014.2 |
| 20260903074654 | 80 | 250 | 1.0 | 2.0 | 0.00 | 0.00 | 0.00 | 96 | 1014.2 |
| 20260903074146 | 80 | 224 | 0.0 | 1.0 | 0.00 | 0.00 | 0.00 | 96 | 1013.9 |
| 20260903073647 | 80 | 279 | 0.0 | 1.0 | 0.00 | 0.00 | 0.00 | 96 | 1014.2 |
| 20260903073148 | 80 | 217 | 0.0 | 0.0 | 0.00 | 0.00 | 0.00 | 95 | 1014.2 |
| 20260903072650 | 80 | 238 | 0.0 | 1.0 | 0.00 | 0.00 | 0.00 | 95 | 1013.9 |
| 20260903072147 | 80 | 227 | 0.0 | 2.0 | 0.00 | 0.00 | 0.00 | 95 | 1014.2 |
| 20260903071647 | 80 | 256 | 0.0 | 1.0 | 0.00 | 0.00 | 0.00 | 95 | 1014.2 |
| 20260903071148 | 80 | 343 | 0.0 | 1.0 | 0.00 | 0.00 | 0.00 | 96 | 1014.2 |
| 20260903070646 | 80 | 315 | 0.0 | 1.0 | 0.00 | 0.00 | 0.00 | 96 | 1014.2 |
| 20260903070148 | 80 | 217 | 0.0 | 2.0 | 0.00 | 0.00 | 0.00 | 96 | 1014.6 |
| 20260903065647 | 80 | 235 | 1.0 | 2.0 | 0.00 | 0.00 | 0.00 | 96 | 1014.6 |
| 20260903065147 | 80 | 205 | 0.0 | 2.0 | 0.00 | 0.00 | 0.00 | 96 | 1014.6 |
| 20260903064646 | 80 | 223 | 1.0 | 2.0 | 0.00 | 0.00 | 0.00 | 96 | 1014.6 |
| 20260903064146 | 80 | 204 | 1.0 | 1.0 | 0.00 | 0.00 | 0.00 | 95 | 1014.6 |
| 20260903063646 | 80 | 220 | 0.0 | 1.0 | 0.00 | 0.00 | 0.00 | 95 | 1014.6 |
| 20260903063146 | 80 | 252 | 0.0 | 1.0 | 0.00 | 0.00 | 0.00 | 95 | 1014.6 |
| 20260903062647 | 80 | 242 | 0.0 | 1.0 | 0.00 | 0.00 | 0.00 | 95 | 1014.6 |
| 20260903062146 | 80 | 222 | 1.0 | 2.0 | 0.00 | 0.00 | 0.00 | 95 | 1014.9 |
| 20260903061648 | 80 | 231 | 1.0 | 2.0 | 0.00 | 0.00 | 0.00 | 95 | 1014.9 |
| 20260903061146 | 80 | 224 | 0.0 | 1.0 | 0.00 | 0.00 | 0.00 | 95 | 1014.9 |
| 20260903060646 | 80 | 259 | 0.0 | 1.0 | 0.00 | 0.00 | 0.00 | 95 | 1014.9 |
| 20260903060152 | 80 | 233 | 0.0 | 0.0 | 0.00 | 0.00 | 0.00 | 95 | 1014.6 |
| 20260903055648 | 80 | 224 | 0.0 | 1.0 | 0.00 | 0.00 | 0.00 | 95 | 1014.9 |
| 20260903055147 | 80 | 247 | 0.0 | 1.0 | 0.00 | 0.00 | 0.00 | 95 | 1014.9 |
| 20260903054646 | 80 | 227 | 0.0 | 2.0 | 0.00 | 0.00 | 0.00 | 96 | 1014.9 |
| 20260903054146 | 80 | 205 | 0.0 | 0.0 | 0.00 | 0.00 | 0.00 | 95 | 1015.2 |
| 20260903053647 | 80 | 293 | 0.0 | 0.0 | 0.00 | 0.00 | 0.00 | 95 | 1014.9 |
| 20260903053147 | 80 | 224 | 0.0 | 1.0 | 0.00 | 0.00 | 0.00 | 95 | 1014.9 |
| 20260903052646 | 80 | 184 | 1.0 | 1.0 | 0.00 | 0.00 | 0.00 | 95 | 1014.9 |
| 20260903052146 | 80 | 216 | 0.0 | 1.0 | 0.00 | 0.00 | 0.00 | 94 | 1014.9 |
| 20260903051647 | 81 | 180 | 0.0 | 1.0 | 0.00 | 0.00 | 0.00 | 93 | 1014.9 |
| 20260903051146 | 81 | 205 | 0.0 | 1.0 | 0.00 | 0.00 | 0.00 | 93 | 1015.2 |
| 20260903050647 | 81 | 229 | 0.0 | 2.0 | 0.00 | 0.00 | 0.00 | 94 | 1015.2 |
| 20260903050147 | 81 | 249 | 1.0 | 2.0 | 0.00 | 0.00 | 0.00 | 94 | 1015.2 |
| 20260903045647 | 81 | 217 | 0.0 | 1.0 | 0.00 | 0.00 | 0.68 | 93 | 1014.9 |